NOAA 16 DEB, 41198

Orbit data source: Space-Track

NOAA 16 DEB, 41198 is space debris in SSO originally from a launch on Thu, 21 Sep 2000 UTC launched from the Air Force Western Test Range (AFWTR). Debris objects in space refer to the collection of defunct objects orbiting the Earth. Examples of debris include non-operational satellites, rocket bodies, and fragments generated from explosions, collisions, or faulty payload assembly.

Loading next visibility...
Identifier
41198, 2000-055DB
Orbit
SSO
Last TLE update
17 hours ago
Origin
Manufacturer
Unknown
Mission
Spacecraft
Bus & Motor
Unknown
Mass
Unknown
Launch date (UTC)
2000-09-21 (25 years ago)
Launch vehicle
Unknown
Launch site
Air Force Western Test Range (AFWTR)
Object type
Payload
Rocket body
Debris
Shape & HBR
Unknown
Radar Cross Section
Small (<0.1 m²)

Expand to show TLE details & history

TLE from 17 hours ago
0 NOAA 16 DEB
1 41198U 00055DB  25187.22253290  .00007879  00000-0  27155-2 0  9994
2 41198  98.9171 283.2965 0027683 105.6973 254.7269 14.35957020491962
Epoch: 2025-07-06T05:20Z
TLE epoch observation values (Epoch: 2025-07-06T05:20:26.842Z)
Latitude
0.00002°
Longitude
-81.26466°
Altitude
780.083 km
Speed
7.461 km/s
True Right ascension
18h 53m 11s
True Declination
0° 00' 00"
Sunlit
Object was in full shadow at epoch
Visualization orbit readout
Latitude
50.15585°
Longitude
-91.31311°
Altitude
767.79 km
Speed
7.481 km/s
Apparent Right ascension
20h 20m 00s
Apparent Declination
9° 40' 53"
Sunlit
Object is in daylight
Visualization observer readout
Local Sidereal Time
10:18:04
Azimuth
35.56° NE
Elevation
-33.368°
Doppler factor
1
Orbital elements
Apogee altitude
788.821 km
Perigee altitude
749.25 km
Semi-major axis
7,147.172 km
Eccentricity
0.00277
Inclination
98.9171°
RAAN
283.2965°
Arg. of periapsis
105.6973°
True anomaly
Unknown
Mean anomaly
254.7269°
Eccentric anomaly
Unknown
Mean motion
3.59205 °/min
Orbital period
100.22 mins
BSTAR
0.0027155
Loading maneuver chart data...
Loading SW <> Apogee altitude chart data...
Loading historical data...
Loading historical data...
Loading historical data...
Loading historical data...
Loading historical data...
Loading historical data...
Loading historical data...

NOAA 16 DEB Visibility forecast

Observer location: undefined°, undefined°

Span
Click to sort rows by Start time (UTC) header in descending order
Start Az.
Max El. time (UTC)
Max El. Az.
Max El.
End time (UTC)
End Az.
4 mins2025-07-07 04:55:58.071Z87.864° E2025-07-07 04:57:58.071Z63.421° ENE13.61°2025-07-07 04:59:58.071Z38.021° NE
8 mins2025-07-07 06:32:58.071Z174.98° S2025-07-07 06:36:58.071Z288.49° WNW42.996°2025-07-07 06:40:58.071Z340.751° N
7 mins2025-07-07 18:43:58.071Z41.637° NE2025-07-07 18:46:58.071Z97.45° ESE31.031°2025-07-07 18:50:58.071Z162.195° S
6 mins2025-07-07 20:22:58.071Z338.597° N2025-07-07 20:25:58.071Z292.393° WNW22.745°2025-07-07 20:28:58.071Z248.145° W
|